Location: Lynch Observatory
(39.9540°N, 75.1861°W)
Time: 02:50:44
(UTC-04:00)

NANOSAT C BR1 - Pass Details

Date: 26 April 2024
Orbit: 556 x 561 km, 98.1° (Epoch: 19 May)

Event Time Altitude Azimuth Distance (km) Brightness Sun altitude
Rises 04:36:26 0° 17° (NNE) 2,769 ? -16.3°
Reaches altitude 10° 04:38:37 10° 21° (NNE) 1,869 ? -15.9°
Maximum altitude 04:42:36 58° 101° (E) 664 ? -15.3°
Drops below altitude 10° 04:46:34 10° 181° (S) 1,856 ? -14.7°
Enters shadow 04:46:50 - 181° (S) 1,967 ? -14.6°
